AirNav   Air Wisconsin pilot careers
 
 311 users online  

KPCW Erie-Ottawa International Airport
Port Clinton, Ohio, USA

GOING TO PORT CLINTON?


FAA INFORMATION EFFECTIVE 03 JANUARY 2019

Location

FAA Identifier: PCW
Lat/Long: 41-30-58.6000N / 082-52-10.2000W
41-30.976667N / 082-52.170000W
41.5162778 / -82.8695000
(estimated)
Elevation: 590.1 ft. / 179.9 m (surveyed)
Variation: 07W (2010)
From city: 3 miles E of PORT CLINTON, OH
Time zone: UTC -5 (UTC -4 during Daylight Saving Time)
Zip code: 43452

Airport Operations

Airport use: Open to the public
Activation date: 07/1971
Control tower: no
ARTCC: CLEVELAND CENTER
FSS: CLEVELAND FLIGHT SERVICE STATION
NOTAMs facility: CLE (NOTAM-D service available)
Attendance: 0700-1800
Wind indicator: lighted
Segmented circle: no
Lights: ACTVT MIRL RYS 09/27 & 18/36; REILS RYS 09 & 27;PAPIS RYS 09 & 27 - CTAF.
Beacon: white-green (lighted land airport)
Operates sunset to sunrise.

Airport Communications

CTAF/UNICOM: 122.8
WX AWOS-3: 118.775 (419-734-9955)
CLEVELAND APPROACH: 126.35 [0600-2300]
CLEVELAND DEPARTURE: 126.35 [0600-2300]
WX AWOS-3 at S24 (15 nm SW): 119.575 (419-547-6932)

Nearby radio navigation aids

VOR radial/distance  VOR name  Freq  Var
DJBr292/33.2DRYER VOR/DME113.6005W
VWVr086/34.8WATERVILLE VOR/DME113.1002W

 
NDB name  Hdg/Dist  Freq  Var  ID
PORT CLINTONat field42307WPCW .--. -.-. .--
TIFFIN037/29.726905WTII - .. ..
GROSSE ILE167/37.341907WRYS .-. -.-- ...

Airport Services

Fuel available: 100LL JET-A JET-A+
Parking: hangars and tiedowns
Airframe service: MINOR
Powerplant service: MINOR
Bottled oxygen: NONE
Bulk oxygen: NONE

Runway Information

Runway 9/27

Dimensions: 5646 x 100 ft. / 1721 x 30 m
Surface: asphalt/grooved, in good condition
Weight bearing capacity: 
Single wheel: 16.0
Runway edge lights: medium intensity
Runway edge markings: RWY 09/27: MARKINGS FADED
RUNWAY 9  RUNWAY 27
Latitude: 41-30.961708N41-31.081315N
Longitude: 082-52.900140W082-51.673483W
Elevation: 588.7 ft.588.2 ft.
Gradient: 0.1%0.1%
Traffic pattern: leftleft
Runway heading: 090 magnetic, 083 true270 magnetic, 263 true
Displaced threshold: no201 ft.
Declared distances: TORA:5646 TODA:5646 ASDA:5161 LDA:5161TORA:5646 TODA:5646 ASDA:5646 LDA:5445
Markings: nonprecision, in poor conditionnonprecision, in poor condition
Visual slope indicator: 4-light PAPI on left (3.00 degrees glide path)4-light PAPI on left (3.00 degrees glide path)
Runway end identifier lights: yesyes
Touchdown point: yes, no lightsyes, no lights
Obstructions: 70 ft. tree, 1800 ft. from runway, 230 ft. right of centerline, 22:1 slope to clear50 ft. tree, 1350 ft. from runway, 23:1 slope to clear

Runway 18/36

Dimensions: 4002 x 75 ft. / 1220 x 23 m
Surface: asphalt, in excellent condition
Runway edge lights: medium intensity
RUNWAY 18  RUNWAY 36
Latitude: 41-31.241588N41-30.583033N
Longitude: 082-52.019652W082-51.986897W
Elevation: 586.1 ft.589.0 ft.
Traffic pattern: leftleft
Runway heading: 185 magnetic, 178 true005 magnetic, 358 true
Markings: basic, in good conditionbasic, in good condition
Runway end identifier lights: nono
Touchdown point: yes, no lightsyes, no lights
Obstructions: 45 ft. trees, 1075 ft. from runway, 19:1 slope to clear70 ft. trees, 1450 ft. from runway, 250 ft. both sides of centerline, 17:1 slope to clear

Airport Ownership and Management from official FAA records

Ownership: Publicly-owned
Owner: ERIE OTTAWA ARPT AUTH
3255 E. STATE ROAD
PORT CLINTON, OH 43452
Phone 419-734-6297
Manager: STAN GEBHARDT
3255 EAST STATE RD
PORT CLINTON, OH 43452
Phone 419-734-6297

Airport Operational Statistics

Aircraft based on the field: 73
Single engine airplanes: 53
Multi engine airplanes: 13
Jet airplanes: 4
Helicopters: 3
    
Aircraft operations: avg 148/day *
46% local general aviation
28% transient general aviation
26% air taxi
<1% military
* for 12-month period ending 15 September 2017

Additional Remarks

RWY 09/27 IS PREFERRED WHEN WINDS ARE LIGHT AND VRBL.
TAXILANE A CLSD TO ACFT WITH WINGSPAN MORE THAN 49 FT.
BIRDS & OTHER WILDLIFE ON & INVOF APRT

Instrument Procedures

NOTE: All procedures below are presented as PDF files. If you need a reader for these files, you should download the free Adobe Reader.

NOT FOR NAVIGATION. Please procure official charts for flight.
FAA instrument procedures published for use from 3 January 2019 at 0901Z to 31 January 2019 at 0900Z.

 
IAPs - Instrument Approach Procedures
RNAV (GPS) RWY 09   download (189KB)
RNAV (GPS) RWY 27   download (215KB)
NDB RWY 27   download (225KB)
NOTE: Special Alternate Minimums apply   download (37KB)
NOTE: Special Take-Off Minimums/Departure Procedures apply   download (237KB)

Other nearby airports with instrument procedures:

S24 - Sandusky County Regional Airport (15 nm SW)
14G - Fremont Airport (17 nm SW)
5A1 - Norwalk-Huron County Airport (22 nm SE)
KTDZ - Toledo Executive Airport (28 nm W)
8G1 - Willard Airport (29 nm S)
 
Loc | Ops | Rwys | IFR | FBO | Links
Com | Nav | Svcs | Stats | Notes
Area around KPCW (Erie-Ottawa International Airport)
 
Road maps at: MapQuest Bing Google
 
Aerial photo
WARNING: Photo may not be current or correct
Aerial photo of KPCW (Erie-Ottawa International Airport)
Photo by Tal Reichert
Photo taken 29-Jul-2012
looking northeast.

Do you have a better or more recent aerial photo of Erie-Ottawa International Airport that you would like to share? If so, please send us your photo.

 
Sectional chart

 
Airport distance calculator
Flying to Erie-Ottawa International Airport? Find the distance to fly.

From to KPCW

Sunrise and sunset
Times for 17-Jan-2019
 Local
(UTC-5)
 Zulu
(UTC)
Morning civil twilight07:2512:25
Sunrise07:5612:56
Sunset17:2822:28
Evening civil twilight17:5822:58

Current date and time
Zulu (UTC)  17-Jan-2019 10:01:35
Local (UTC-5)  17-Jan-2019 05:01:35
 
METAR
KPCW 170955Z AUTO 12009G15KT 10SM OVC038 M04/M07 A3026 RMK AO2
TAF
KTOL 
42nm W 
170543Z 1706/1806 10008KT P6SM OVC035 FM171000 11005KT P6SM OVC025 TEMPO 1714/1716 4SM -SN OVC010 FM171600 12007KT 2SM -SN OVC015 FM172000 14004KT 1SM -SN OVC005 FM180300 20005KT 5SM -DZ BR OVC003
KMFD 
45nm S 
170543Z 1706/1806 06006KT P6SM OVC035 FM170800 11006KT P6SM OVC025 FM171000 12006KT P6SM BKN015 TEMPO 1716/1719 4SM -SN OVC008 FM171900 15010KT 4SM -SN OVC006 FM172200 17008KT 1SM -SN OVC004 FM180100 19005KT 4SM -RASN OVC003
CYQG 
46nm N 
170538Z 1706/1806 09006KT P6SM BKN030 BKN180 FM171100 08005KT P6SM BKN030 OVC120 BECMG 1716/1718 14012KT FM171800 14012KT P6SM -SN OVC025 TEMPO 1718/1721 11/2SM -SN OVC012 FM172100 14010KT 11/2SM -SN OVC012 FM180200 21005KT 4SM -FZDZ -SN BR OVC005 RMK FCST BASED ON AUTO OBS. NXT FCST BY 171200Z
KCLE 
46nm E 
170543Z 1706/1812 08007KT P6SM SCT040 BKN200 FM171000 12006KT P6SM BKN030 FM171900 15008KT 4SM -SHSN OVC015 FM180100 18007KT 1SM -SN OVC010 FM180400 19008KT 6SM -SN BR OVC010
KFDY 
47nm SW 
170543Z 1706/1806 10008KT P6SM OVC035 FM171000 12007KT P6SM OVC020 TEMPO 1714/1717 4SM -SN OVC010 FM171700 14009KT 2SM -SN OVC008 FM172000 16007KT 1SM -SN OVC004 FM172300 17005KT 5SM -RASN OVC003 FM180300 20005KT 5SM -DZ BR OVC003
KDTW 
48nm NW 
170539Z 1706/1812 10005KT P6SM BKN030 OVC200 TEMPO 1706/1709 SCT030 BKN200 FM171100 12005KT P6SM BKN025 OVC150 FM171600 14010KT P6SM OVC025 FM172000 16007KT 4SM -SN OVC015 FM172200 16007KT 2SM -SN BR OVC007 FM180100 20005KT 4SM BR OVC007
NOTAMs
Click for the latest NOTAMs
NOTAMs are issued by the DoD/FAA and will open in a separate window not controlled by AirNav.

 

 
 

FBO, Fuel Providers, and Aircraft Ground Support

  
 Business Name 
 
 Contact 
 
 Services / Description 
 
Fuel Prices
 
Comments
  
 Erie Ottawa International Airport Authority
419-734-6297
[web site]
[email]
Aviation fuel, Aircraft parking (ramp or tiedown), Hangars, GPU / Power cart, Passenger terminal and lounge, Aviation museum, Rental cars, ...
 
U.S. Government AIR Card   U.S. Customs Service   WingPoints™ Rewards   Crew cars  
 
More info about Erie Ottawa International Airport Authority
Phillips 66
100LL Jet A
FS $5.38 $4.61 
SS $5.13 --- 
 Updated 14-Jan-2019
 
   9 read write
FS=Full service
SS=Self service
Update Fuel Prices
 

Would you like to see your business listed on this page?

 If your business provides an interesting product or service to pilots, flight crews, aircraft, or users of the Erie-Ottawa International Airport, you should consider listing it here.  To start the listing process, click on the button below
 
Add a business
 

Other Pages about Erie-Ottawa International Airport

www.portclintonairport.com
 
Update a link
 
Copyright © AirNav, LLC. All rights reserved. Privacy Policy  Contact